sat.trackr.live / text

‹ back to catalog

OTP-2

NORAD 63235 · 2025-052AB

PAYLOAD ACTIVE UNKNOWN

§ Identity

Operator
Country
US
Launch date
2025-03-15
Launch site
AFWTR
Launch vehicle
Mass (kg)
RCS (m²)

External: N2YO · Heavens-Above · Gunter

§ Orbital elements

Epoch: 2026-05-24T23:32:19.304736Z

Period
94.51 min
Inclination
97.3896°
Eccentricity
0.0004657
Mean motion
15.23614242 rev/d
Perigee alt
491.7 km
Apogee alt
498.2 km
Semi-major
6,873.1 km
B*
2.5891e-4
RAAN
37.7586°
Arg perigee
234.0442°
Mean anomaly
126.0364°
Rev number
6,633

§ Raw data

OTP-21 63235U 25052AB  26144.98077899  .00006131  00000+0  25891-3 0  99952 63235  97.3896  37.7586 0004657 234.0442 126.0364 15.23614242 66330

JSON: /api/v1/satellites/63235 · /tle

For live sub-satellite position, see the globe view (requires WebGL).

§ Visibility from observer

Set your observer location to see the next 7 days of passes ≥ 10°. The values pass through the URL so the page stays shareable.

No JS? Fill the form by hand. The geolocation button needs JavaScript.

§ Radio — SatNOGS DB

ModeDescriptionDownlinkUplink
FSK Mode S - FSK 50k - Transmitter 2.223 GHz
GFSK Mode U - GFSK4k8 - AX.25 - Telemetry 400.500 MHz

2 transmitters · refreshed weekly from db.satnogs.org